Wind_Speed
12 12 12 12 12 12 12 13 14 14 15 15 15 15 15 15 15 16 17 18 18 19 19 19 19 20 21 22 22 22 24 24 24 25 26 26 26 26 26 26 27 28 28
14 13 13 13 13 13 13 14 15 15 15 16 16 16 16 16 16 17 17 18 18 18 18 19 19 20 21 22 23 23 24 25 25 26 27 27 26 26 26 26 27 28 29
14 15 15 14 15 15 15 15 16 16 17 17 17 17 17 16 17 17 17 18 18 18 18 19 19 20 21 22 22 23 23 24 25 26 26 27 27 27 27 27 27 28 29
16 16 16 15 16 16 16 16 17 17 17 17 17 17 17 17 17 17 17 18 18 19 19 20 20 21 21 22 22 22 23 24 24 25 26 26 27 27 26 27 27 27 28
18 17 17 17 16 16 16 16 16 17 17 18 18 18 17 17 17 18 19 19 19 20 20 20 21 22 22 21 21 22 22 23 24 25 25 25 26 26 26 26 26 26 26
19 18 16 16 16 16 16 17 17 18 18 18 19 19 18 18 19 19 19 19 19 20 21 22 22 22 22 21 21 21 22 22 22 23 23 23 24 24 25 25 26 26 26
19 18 17 16 17 17 17 18 19 19 19 19 19 19 19 19 19 19 19 20 20 21 22 23 23 23 22 22 21 20 20 20 21 21 21 21 21 22 23 24 24 24 24
18 19 18 18 18 18 18 19 19 20 20 20 20 19 19 19 20 19 19 20 20 21 22 22 22 22 21 20 20 19 19 19 19 20 20 20 21 21 22 22 22 22 23
17 18 18 19 19 19 20 20 20 21 21 20 20 20 20 20 20 20 20 20 20 21 21 21 21 21 21 20 19 20 20 20 19 19 19 19 19 20 20 21 21 22 22
17 17 18 18 19 21 21 22 22 22 21 21 21 21 21 21 21 21 21 21 21 21 21 21 21 21 21 20 20 20 19 19 19 19 19 19 19 19 19 19 19 19 20
18 18 18 19 20 20 21 22 22 22 22 22 22 21 22 22 21 22 22 22 21 21 21 22 22 21 20 19 20 20 20 19 18 18 18 19 19 19 18 19 19 19 19
18 19 19 19 19 20 21 22 22 22 22 22 21 21 21 22 22 22 22 22 22 22 22 22 22 22 21 20 20 20 19 19 18 18 18 18 18 18 18 18 18 19 20
18 19 19 19 19 20 20 20 21 21 20 20 20 20 20 21 21 22 22 22 23 23 23 22 21 22 22 21 21 20 20 20 20 19 19 19 18 18 18 18 19 20 20
19 19 19 19 20 20 19 20 20 20 19 19 19 19 19 20 21 22 22 22 22 22 22 22 22 22 22 21 20 20 20 19 19 19 19 19 18 18 18 18 19 19 19
19 18 18 19 20 19 19 19 19 19 19 19 19 19 20 21 21 22 22 23 22 22 22 22 22 22 22 21 20 20 20 20 20 20 19 18 18 18 19 19 19 18 18
19 19 19 19 19 19 19 18 19 19 19 20 20 20 21 21 22 22 23 23 23 23 22 22 22 22 21 20 20 19 19 19 19 18 18 18 19 19 19 19 19 18 17
20 19 19 19 19 19 19 19 20 20 20 21 21 21 21 22 22 22 23 23 23 23 22 22 22 21 20 20 20 20 19 19 19 19 19 18 19 19 19 19 18 19 19
21 21 20 20 20 20 20 21 20 20 21 22 22 22 23 23 23 23 23 23 22 22 22 21 20 20 20 20 20 20 20 19 19 19 19 19 19 19 19 19 19 19 19
21 21 21 20 20 21 21 22 21 21 22 22 22 22 23 23 23 22 22 21 21 22 22 21 20 20 20 20 21 20 20 20 20 19 19 19 19 19 19 19 19 18 18
21 20 20 21 21 21 22 22 22 22 21 22 22 22 22 22 21 21 21 21 21 22 22 21 21 20 20 20 21 21 21 21 20 20 20 20 20 20 19 19 19 19 19
21 21 21 21 21 21 22 22 22 22 21 21 20 21 20 21 21 21 21 21 21 22 22 22 21 21 21 21 21 22 22 21 21 21 21 20 20 20 19 19 19 19 19
21 21 21 21 21 21 21 21 21 21 21 20 20 20 20 21 21 22 22 22 22 22 22 22 22 22 22 22 22 22 22 22 22 21 21 21 21 20 19 19 19 19 19
21 21 21 21 21 21 20 20 20 20 20 21 21 21 21 21 21 22 22 22 22 22 22 22 22 21 22 22 22 22 22 22 22 23 23 22 21 21 20 20 20 19 19
20 20 21 20 20 20 20 20 20 20 21 21 21 21 21 21 21 22 22 22 22 22 21 21 21 21 22 22 22 22 23 23 24 24 23 22 21 21 21 21 20 20 19
21 21 20 20 20 20 20 20 20 20 20 20 20 20 21 21 21 21 22 22 23 22 22 22 22 22 23 23 23 23 24 24 23 22 22 22 21 21 21 20 20 20 19
21 20 20 19 19 19 19 19 19 20 20 20 20 20 20 21 21 22 22 22 23 23 23 23 23 24 24 25 24 24 24 23 22 22 22 21 21 21 20 19 20 20 20
Wind_Direction
292 293 295 297 299 297 298 302 302 305 309 313 313 308 303 302 300 299 299 299 300 298 296 293 291 289 286 284 283 282 279 277 276 276 277 276 276 275 274 273 272 271 267
289 289 294 296 295 297 297 299 300 299 305 309 311 309 304 300 299 300 300 301 303 303 300 299 298 296 293 290 287 284 280 278 277 277 277 275 275 275 274 274 272 271 268
285 287 292 295 296 297 296 297 299 302 303 305 307 307 305 301 300 301 302 303 307 307 304 301 302 300 297 294 290 287 283 280 280 279 278 276 275 275 274 274 273 270 268
285 287 289 292 294 296 297 297 299 301 303 304 306 307 306 304 302 303 303 304 305 306 305 303 302 303 301 296 292 289 285 283 281 282 280 278 278 278 276 275 274 271 268
288 286 287 290 294 298 300 301 302 301 302 303 303 304 305 306 306 306 306 305 304 304 306 305 302 304 304 300 295 291 288 286 284 284 282 280 279 278 278 276 275 274 271
291 288 288 290 292 295 298 302 302 302 302 304 304 308 307 305 303 304 306 306 306 306 307 307 305 303 304 302 297 293 289 287 285 285 283 283 281 280 277 277 277 275 273
291 292 291 291 292 294 296 300 303 303 303 305 305 307 308 306 305 305 305 306 305 305 306 307 307 306 304 303 301 298 296 293 289 287 286 285 283 283 281 279 278 277 274
289 290 289 288 291 290 292 296 299 300 300 301 304 304 305 305 306 307 306 306 306 306 307 308 308 309 308 305 303 303 302 300 296 293 291 288 286 284 283 280 277 275 274
289 287 287 286 287 288 291 293 295 297 299 298 301 303 304 304 306 306 305 305 306 307 308 309 308 308 307 306 304 304 303 302 300 298 295 292 291 290 287 281 278 276 275
286 286 287 288 287 288 288 290 293 295 297 297 298 300 301 304 305 306 305 305 305 306 307 308 308 306 305 303 303 304 304 302 301 299 298 295 293 292 289 284 280 277 277
284 286 287 288 289 288 289 289 291 294 296 297 297 298 299 300 301 304 305 305 306 306 306 307 307 306 304 302 302 303 303 301 300 300 300 298 295 294 291 285 283 281 280
284 284 285 287 288 289 290 290 290 291 295 297 297 297 298 298 299 302 304 305 306 306 307 308 308 307 305 302 300 301 301 301 301 301 301 301 300 295 292 287 284 283 282
282 281 282 284 286 288 290 289 289 291 294 296 297 298 300 301 302 302 304 306 307 307 308 308 306 306 304 302 301 299 298 299 300 300 301 302 300 297 294 291 286 285 283
283 282 283 283 284 287 288 289 289 291 293 295 298 301 304 305 305 306 306 307 307 308 308 308 307 304 303 301 300 300 300 301 300 300 302 302 302 299 297 295 294 291 285
285 287 288 286 284 287 288 288 288 290 293 295 299 301 302 303 304 305 304 305 306 308 308 308 308 306 303 300 300 300 300 300 300 301 301 302 302 300 297 295 293 291 290
284 287 289 288 286 286 289 290 291 292 293 295 297 299 299 300 301 303 303 304 304 305 306 308 308 306 304 301 299 301 301 300 300 300 300 300 301 301 299 298 295 291 290
285 287 288 289 287 288 291 293 293 292 294 295 296 297 298 300 302 303 304 304 304 305 306 306 306 305 304 302 300 300 300 299 298 297 297 300 302 301 302 301 299 295 291
286 287 288 290 289 288 289 292 293 292 293 294 295 295 297 299 300 301 302 302 303 305 307 307 305 303 302 303 301 299 299 297 297 297 297 299 301 301 302 302 300 297 293
286 286 287 289 288 288 290 292 295 295 295 296 297 298 299 300 300 301 302 303 305 306 306 305 304 303 301 300 300 300 300 298 297 297 297 298 300 301 302 303 302 299 296
286 287 287 288 288 288 290 292 294 296 296 297 298 299 300 299 301 302 303 304 304 305 304 302 302 302 302 301 300 300 299 297 296 297 297 298 299 300 300 300 301 299 297
286 286 288 288 288 288 290 292 293 295 296 297 297 298 299 298 299 301 304 305 304 305 304 303 302 302 304 303 301 300 300 298 297 296 297 298 298 299 299 299 299 298 297
286 287 288 288 289 290 292 293 295 295 296 297 299 299 298 299 300 301 303 305 304 303 304 302 301 301 301 301 301 300 299 299 299 297 297 296 296 295 295 296 298 298 297
285 287 289 290 290 291 292 294 295 294 295 296 298 300 301 301 301 301 302 304 304 303 303 301 300 300 301 301 300 301 301 299 299 299 298 296 293 292 291 292 294 295 296
282 284 287 290 290 290 291 293 295 295 296 298 298 298 301 301 302 302 302 304 306 306 305 305 304 303 304 304 303 303 302 301 299 298 298 295 292 291 290 291 292 294 295
281 284 286 288 289 291 292 292 293 294 296 297 298 300 302 302 302 303 303 305 306 306 305 304 304 303 304 304 304 304 303 302 301 300 298 294 291 290 289 288 289 291 293
280 283 285 287 289 291 292 292 293 295 297 295 295 297 300 301 302 302 303 305 305 305 305 304 304 302 302 304 304 304 303 302 300 299 298 295 291 288 286 286 287 289 290
Height
5802 5801 5799 5798 5796 5794 5792 5791 5789 5786 5784 5782 5779 5776 5774 5772 5770 5768 5767 5765 5763 5760 5758 5756 5754 5752 5751 5749 5748 5746 5745 5745 5744 5743 5742 5742 5741 5741 5740 5739 5738 5738 5738
5799 5798 5796 5795 5793 5791 5789 5787 5785 5783 5781 5778 5775 5773 5770 5768 5766 5764 5762 5760 5758 5755 5753 5751 5749 5747 5745 5743 5741 5739 5738 5737 5737 5736 5735 5734 5734 5733 5732 5731 5731 5730 5730
5795 5794 5792 5791 5789 5787 5785 5784 5781 5779 5777 5774 5772 5769 5767 5764 5762 5760 5758 5755 5753 5751 5748 5746 5743 5741 5739 5736 5734 5732 5731 5730 5729 5728 5727 5726 5726 5725 5724 5724 5723 5722 5722
5791 5790 5788 5787 5785 5783 5781 5779 5777 5775 5773 5770 5768 5765 5763 5760 5758 5755 5753 5751 5748 5746 5743 5741 5738 5736 5733 5730 5728 5726 5724 5723 5722 5721 5720 5719 5718 5716 5716 5715 5715 5714 5713
5786 5785 5784 5782 5781 5779 5777 5775 5773 5771 5769 5766 5764 5761 5758 5756 5754 5751 5749 5746 5743 5741 5739 5736 5733 5730 5727 5724 5722 5719 5718 5716 5715 5713 5712 5711 5710 5709 5708 5707 5707 5706 5705
5781 5780 5779 5777 5776 5775 5773 5771 5769 5767 5765 5762 5760 5757 5754 5752 5750 5747 5744 5741 5739 5736 5734 5731 5728 5725 5722 5719 5716 5714 5712 5710 5708 5706 5705 5704 5703 5701 5700 5699 5698 5698 5698
5777 5775 5774 5773 5772 5771 5769 5767 5765 5763 5760 5758 5756 5753 5750 5748 5745 5743 5740 5737 5734 5731 5728 5725 5722 5719 5717 5714 5711 5709 5706 5704 5702 5700 5698 5697 5695 5694 5693 5692 5691 5690 5690
5772 5771 5770 5769 5767 5766 5764 5763 5761 5758 5756 5753 5751 5749 5746 5743 5740 5738 5735 5732 5729 5726 5723 5720 5717 5714 5711 5709 5706 5704 5701 5699 5697 5694 5693 5691 5689 5687 5686 5685 5684 5683 5683
5767 5766 5765 5764 5763 5761 5759 5758 5756 5753 5751 5749 5746 5744 5741 5738 5735 5733 5730 5727 5724 5721 5718 5715 5712 5709 5706 5704 5701 5699 5696 5694 5691 5689 5687 5685 5684 5682 5680 5679 5678 5677 5676
5763 5762 5760 5759 5757 5755 5754 5752 5750 5748 5746 5743 5741 5739 5736 5733 5730 5727 5724 5721 5719 5716 5713 5710 5707 5704 5701 5699 5696 5694 5692 5689 5686 5684 5682 5680 5678 5676 5674 5673 5672 5671 5670
5758 5756 5755 5754 5752 5750 5748 5746 5744 5742 5740 5738 5736 5733 5730 5728 5725 5722 5719 5716 5713 5710 5707 5705 5702 5699 5696 5693 5691 5689 5686 5684 5681 5679 5677 5674 5672 5671 5669 5667 5666 5665 5664
5752 5751 5750 5748 5746 5744 5743 5741 5739 5737 5735 5732 5730 5727 5725 5722 5719 5717 5714 5711 5708 5705 5702 5699 5696 5693 5691 5688 5686 5683 5681 5678 5676 5674 5672 5669 5667 5665 5663 5662 5660 5659 5658
5747 5745 5744 5743 5741 5739 5737 5735 5733 5731 5729 5727 5724 5721 5719 5716 5713 5711 5708 5705 5702 5699 5696 5693 5690 5688 5685 5683 5680 5678 5675 5673 5671 5669 5666 5664 5662 5660 5658 5656 5654 5653 5651
5741 5739 5738 5737 5735 5734 5732 5730 5728 5726 5724 5721 5719 5716 5713 5711 5708 5705 5702 5699 5696 5693 5690 5687 5684 5682 5679 5677 5674 5672 5670 5668 5665 5663 5661 5659 5657 5654 5652 5650 5648 5646 5645
5736 5734 5732 5731 5730 5728 5726 5725 5723 5721 5719 5716 5714 5711 5708 5706 5703 5700 5697 5694 5691 5688 5684 5681 5678 5676 5673 5671 5668 5666 5664 5662 5660 5658 5656 5653 5651 5649 5647 5645 5643 5641 5639
5730 5728 5726 5725 5724 5722 5721 5719 5717 5715 5713 5710 5708 5706 5703 5700 5697 5694 5691 5688 5685 5682 5679 5675 5672 5670 5667 5665 5663 5661 5659 5657 5654 5652 5650 5648 5646 5644 5641 5639 5637 5635 5633
5724 5722 5721 5719 5718 5716 5715 5713 5711 5710 5707 5705 5702 5700 5697 5694 5692 5689 5686 5683 5679 5676 5673 5670 5667 5664 5661 5659 5657 5655 5653 5651 5649 5647 5645 5643 5641 5638 5636 5633 5631 5629 5627
5718 5716 5715 5713 5712 5711 5709 5707 5705 5703 5701 5699 5696 5693 5691 5688 5686 5683 5679 5676 5673 5670 5667 5664 5661 5658 5656 5654 5652 5650 5647 5645 5643 5641 5639 5637 5635 5633 5630 5628 5626 5623 5621
5711 5710 5708 5707 5706 5704 5703 5701 5699 5697 5694 5692 5689 5687 5684 5682 5679 5676 5673 5670 5667 5664 5661 5658 5656 5653 5651 5648 5646 5644 5642 5639 5637 5635 5633 5631 5629 5627 5625 5622 5620 5618 5615
5705 5703 5702 5701 5699 5698 5696 5694 5692 5690 5688 5685 5683 5680 5678 5675 5673 5670 5667 5665 5662 5659 5656 5653 5650 5648 5645 5643 5640 5638 5635 5633 5631 5629 5627 5625 5623 5621 5619 5616 5614 5612 5610
5698 5697 5695 5694 5693 5691 5690 5688 5686 5684 5681 5679 5677 5674 5671 5669 5667 5664 5662 5659 5656 5653 5650 5647 5645 5642 5639 5637 5634 5631 5629 5627 5624 5622 5620 5618 5616 5614 5612 5610 5608 5606 5604
5691 5690 5689 5687 5686 5684 5683 5681 5679 5677 5675 5673 5671 5668 5666 5663 5661 5658 5656 5653 5650 5647 5644 5641 5638 5635 5633 5630 5627 5625 5622 5620 5617 5615 5613 5611 5609 5608 5606 5604 5602 5600 5597
5685 5683 5682 5681 5679 5678 5676 5674 5673 5671 5669 5667 5664 5662 5659 5657 5654 5652 5649 5646 5643 5640 5638 5634 5631 5629 5626 5623 5620 5618 5615 5612 5610 5608 5606 5604 5602 5601 5599 5598 5596 5593 5591
5678 5677 5676 5674 5673 5671 5670 5668 5666 5664 5662 5660 5658 5655 5653 5651 5648 5646 5643 5640 5636 5634 5631 5628 5625 5622 5619 5616 5614 5611 5608 5605 5602 5600 5598 5596 5594 5593 5592 5590 5589 5587 5585
5671 5670 5669 5667 5666 5664 5663 5661 5659 5658 5656 5654 5652 5649 5647 5645 5642 5639 5636 5633 5630 5627 5624 5621 5618 5616 5613 5610 5607 5604 5600 5597 5594 5592 5589 5588 5587 5586 5585 5583 5582 5580 5578
5664 5663 5662 5661 5660 5658 5657 5655 5653 5651 5649 5647 5645 5643 5641 5638 5636 5633 5630 5627 5624 5621 5618 5614 5611 5608 5605 5603 5599 5596 5593 5590 5587 5584 5582 5580 5579 5578 5577 5576 5575 5574 5572